Regional Weather Roundup
Issued by NWS

Home | Current Version | Previous Version | Text Only | Print | Product List | Glossary On
Versions: 1 2 3 4 5 6 7 8 9 10 11 12 13 14 15 16 17 18 19 20 21 22 23 24 25 26 27 28 29 30 31 32 33 34 35 36 37 38 39 40 41 42 43 44 45 46 47 48 49 50
000
ASCA44 KEWX 030820
RWRMX

LATIN AMERICA AND CARIBBEAN REGIONAL WEATHER ROUNDUP
NATIONAL WEATHER SERVICE AUSTIN/SAN ANTONIO TX
300 AM CDT FRI JUL 03 2015

NOTE: "FAIR" INDICATED FEW OR NO CLOUDS BELOW 12,000 FEET WITH NO
SIGNIFICANT WEATHER AND/OR OBSTRUCTIONS TO VISIBILITY.

BAJA CALIFORNIA

CITY           SKY/WX    TMP DP  RH WIND       PRES   REMARKS
TIJUANA        CLOUDY    64  61  88 NW3       29.99S

NORTHWESTERN MEXICO

CITY           SKY/WX    TMP DP  RH WIND       PRES   REMARKS
DURANGO        MOCLDY    59  57  94 E5        30.19
HERMOSILLO     CLOUDY    88  66  48 N6        29.89R HX  90

NORTHEASTERN MEXICO

CITY           SKY/WX    TMP DP  RH WIND       PRES   REMARKS
MONTERREY      CLEAR     70  66  88 E6        29.92F

WESTERN MEXICO

CITY           SKY/WX    TMP DP  RH WIND       PRES   REMARKS
GUADALAJARA    CLOUDY    64  59  82 CALM      30.14F
MAZATLAN       MOCLDY    79  70  73 CALM      29.80S
P. VALLARTA    MOCLDY    81  75  83 CALM      29.82F
ZACATECAS        N/A    N/A N/A N/A MISG        N/A

CENTRAL MEXICO

CITY           SKY/WX    TMP DP  RH WIND       PRES   REMARKS
MEXICO CITY    MOCLDY    55  54  94 NE8       30.29F
QUERETARO      PTCLDY    54  52  94 CALM      30.27F
S. LUIS POTOSI CLOUDY    61  59  94 S8        30.21
TOLUCA         MOCLDY    52  50  93 CALM      30.39

SOUTHERN MEXICO

CITY           SKY/WX    TMP DP  RH WIND       PRES   REMARKS
ACAPULCO       MOCLDY    84  75  74 NE1       29.83F HX  92
OAXACA         CLOUDY    66  55  68 N6        30.20F
VERACRUZ         N/A    N/A N/A N/A MISG        N/A

YUCATAN PENINSULA

CITY           SKY/WX    TMP DP  RH WIND       PRES   REMARKS
CANCUN         MOCLDY    82  79  89 NE6       29.98F HX  93
COZUMEL        PTCLDY    75  75 100 CALM      29.97F
MERIDA         CLOUDY    75  73  94 E7        29.94F
TAPACHULA      MOCLDY    81  79  94 CALM      29.83F

CENTRAL AMERICA

CITY           SKY/WX    TMP DP  RH WIND       PRES   REMARKS

CARIBBEAN

CITY           SKY/WX    TMP DP  RH WIND       PRES   REMARKS
ARUBA          PTCLDY    81  77  89 E20       29.89S
CURACAO        PTCLDY    79  75  89 E12       29.92S
KINGSTON       PTCLDY    82  70  65 NW8       29.92F
NASSAU         PTCLDY    82  75  78 VRB3      30.07
SAN JUAN       PTCLDY    81  73  78 E14       30.06S
SANTO DOMINGO  PTCLDY    75  72  88 NE7       30.00F
ST. CROIX      MOCLDY    81  70  69 E13       30.04S
ST. MAARTEN    PTCLDY    81  72  74 E9        30.03S
ST. THOMAS     CLOUDY    82  73  74 E9        30.04

$$



USA.gov is the U.S. government's official web portal to all federal, state and local government web resources and services.